Voltar ao catálogo

STARLINK-5458

AtivoComunicaçõesVLEO
NORAD 54764·PAYLOAD·🇺🇸 United States

Lançado Dec 17, 2022 de Cape Canaveral Space Force Station

Loading…

Próximas Passagens (próximas 24 horas)

TLE

AtualizadoSource: CelesTrak SupGP

Época: Sep 15, 2026, 02:05 UTC

1 54764C 22175G   26258.08729167 -.00011110  00000+0 -32823-3 0  2580
2 54764  53.1574 263.0303 0001347  91.8040  46.9249 15.34398866    15

Acompanhe STARLINK-5458 em tempo real com AllMySat

Download on the App Store